Regional Weather Roundup
Issued by NWS

Home | Current Version | Previous Version | Text Only | Print | Product List | Glossary On
Versions: 1 2 3 4 5 6 7 8 9 10 11 12 13 14 15 16 17 18 19 20 21 22 23 24 25 26 27 28 29 30 31 32 33 34 35 36 37 38 39 40 41 42 43 44 45 46 47 48 49 50
000
ASUS43 KMPX 261810
RWRMN
WEATHER ROUNDUP FOR MINNESOTA
NATIONAL WEATHER SERVICE TWIN CITIES/CHANHASSEN MN
100 PM CDT WED APR 26 2017


NOTE: "FAIR" INDICATES FEW OR NO CLOUDS BELOW 12,000 FEET WITH NO
SIGNIFICANT WEATHER AND/OR OBSTRUCTIONS TO VISIBILITY. N/A MEANS
CURRENT SKY AND/OR WEATHER CONDITIONS ARE NOT AVAILABLE.

MNZ060>063-068>070-261900-
   Twin Cities Metro

CITY           SKY/WX    TMP DP  RH WIND       PRES   REMARKS
TWIN CITIES    CLOUDY    39  34  82 N14       29.52F
6HR MIN TEMP:  36; 6HR MAX TEMP:  39; 6HR PCP:  0.13;

ST PAUL        CLOUDY    39  35  86 N14       29.53S
CRYSTAL        CLOUDY    37  32  82 N12       29.51F HAZE
BLAINE         CLOUDY    37  37 100 N13       29.51F
LAKEVILLE      CLOUDY    37  37 100 NW12      29.52R
EDEN PRAIRIE   CLOUDY    39  34  82 N10G20    29.51F
6HR MIN TEMP:  36; 6HR MAX TEMP:  39; 6HR PCP:  0.09;

SOUTH ST PAUL  CLOUDY    37  37 100 N12       29.51R
LAKE ELMO      CLOUDY    37  36  93 N10G16    29.52R
$$
MNZ001>005-007-008-013>017-022>024-027-028-261900-
   Northwest Minnesota

CITY           SKY/WX    TMP DP  RH WIND       PRES   REMARKS
BEMIDJI        LGT SNOW  27  23  85 NE12G17   29.67F WCI  16
HALLOCK        CLOUDY    30  25  80 N12G17    29.84S WCI  21
ROSEAU         CLOUDY    30  25  80 NE20G26   29.80F WCI  18
WARROAD        LGT SNOW  28  25  86 NE24      29.80F WCI  14
THIEF RVR FALL LGT SNOW  28  25  88 N14       29.76F FOG     WCI  17
CROOKSTON      CLOUDY    28  25  86 N15       29.78F WCI  17
FOSSTON        LGT SNOW  27  25  93 N13       29.72F WCI  16
DETROIT LAKES  LGT SNOW  30  28  93 CALM      29.67F
MOORHEAD       DRIZZLE   28  25  86 N9        29.73F WCI  20
PARK RAPIDS    LGT SNOW  29  21  72 N14G21    29.64F WCI  18
MAHNOMEN       LGT SNOW  26  24  90 N7        29.69F WCI  18
$$
MNZ006-009>011-018-025>026-261900-
   North Central Minnesota

CITY           SKY/WX    TMP DP  RH WIND       PRES   REMARKS
BAUDETTE       LGT SNOW  28  23  81 N17G24    29.76F VSB 3/4 WCI  16
FLAG ISLAND    CLOUDY    28  21  74 NE23G30   29.82F WCI  14
INTL FALLS     SNOW      26  21  81 NE18G24   29.73F VSB 1/2 WCI  13
6HR MIN TEMP:  23; 6HR MAX TEMP:  26; 6HR PCP:  0.12;

WASKISH        LGT SNOW  28  25  86 NE9G17    29.72F WCI  20
BIG FORK       LGT SNOW  28  23  80 N8        29.67F WCI  20
LONGVILLE      CLOUDY    28  25  86 N5        29.63F WCI  23
CRANE LAKE     LGT SNOW  25  21  86 N7G16     29.71F WCI  17
ORR            LGT SNOW  27  21  80 NE3       29.64F
COOK           LGT SNOW  27  21  80 N7        29.65F WCI  19
WALKER         LGT SNOW  27  22  84 N6        29.65F WCI  20
$$
MNZ012-019>021-037-261900-
   Northeast Minnesota

CITY           SKY/WX    TMP DP  RH WIND       PRES   REMARKS
DULUTH         SNOW      33  31  92 N8        29.55F VSB 1/2 WCI  26
6HR MIN TEMP:  32; 6HR MAX TEMP:  33; 6HR PCP:  0.25;

ELY            LGT SNOW  27  23  86 N5G16     29.62S WCI  21
HIBBING        MIX PCPN  27  25  92 N12       29.61F FOG     WCI  17
EVELETH        MIX PCPN  30  26  84 NE8       29.61F WCI  22
DULUTH HARBOR  LGT RAIN  34  34 100 NE22G29   29.58F WCI  22
TWO HARBORS    LGT SNOW  36  30  80 NE5       29.55F VSB 1
SILVER BAY     LGT SNOW  34  32  93 N7        29.56F VSB 3/4 WCI  28
GRAND MARAIS     N/A     33  29  85 NE12G20   29.57F WCI  24
G MARAIS ARPRT LGT SNOW  27  21  80 N7        29.53F WCI  19
$$
MNZ029>031-032-039>041-046>048-054>057-064-261900-
   West Central Minnesota

CITY           SKY/WX    TMP DP  RH WIND       PRES   REMARKS
FERGUS FALLS   CLOUDY    30  27  86 N13G20    29.67F WCI  20
WHEATON        MIX PCPN  28  27  93 NW21      29.70F WCI  15
MORRIS         CLOUDY    36  30  80 N15       29.63S
ALEXANDRIA     CLOUDY    31  28  89 N15       29.62F WCI  20
ELBOW LAKE     CLOUDY    32  27  81 NE14      29.65S WCI  22
WADENA         MIX PCPN  27  25  93 N9        29.62F WCI  17
GLENWOOD       CLOUDY    32  30  93 N9        29.61F WCI  24
APPLETON       CLOUDY    36  30  80 N17       29.63F
BENSON         CLOUDY    39  28  65 NE10      29.63F
ORTONVILLE     CLOUDY    30  28  93 N20G26    29.66S FOG     WCI  18
MADISON        CLOUDY    36  36 100 NW17G24   29.64F
WILLMAR        CLOUDY    37  36  93 N16       29.58F
$$
MNZ033>034-036-042>043-049>051-058-059-261900-
   Central Minnesota

CITY           SKY/WX    TMP DP  RH WIND       PRES   REMARKS
ST CLOUD       CLOUDY    36  32  85 N17G24    29.54F
6HR MIN TEMP:  33; 6HR MAX TEMP:  36; 6HR PCP:  0.05;

SAUK CENTRE    CLOUDY    31  28  88 N14       29.60F WCI  21
PAYNESVILLE    CLOUDY    34  34 100 N9G20     29.59S WCI  27
AITKIN         MIX PCPN  34  28  80 N9        29.58F WCI  26
PINE RIVER     MIX PCPN  28  27  93 N9        29.66F WCI  20
BRAINERD       CLOUDY    31  28  89 N12       29.60F WCI  22
STAPLES        MIX PCPN  28  28 100 CALM      29.62F
LONG PRAIRIE   CLOUDY    30  28  93 CALM      29.61F
LITTLE FALLS   CLOUDY    32  30  93 N7        29.59F WCI  26
LITCHFIELD     CLOUDY    37  34  87 N13       29.57F
BUFFALO        CLOUDY    38  34  85 N10G20    29.54F
MAPLE LAKE     LGT RAIN  37  35  95 N16G22    29.55F
HUTCHINSON     CLOUDY    37  35  91 N15       29.56S
$$
MNZ037-044-045-052-053-261900-
   East Central Minnesota

CITY           SKY/WX    TMP DP  RH WIND       PRES   REMARKS
PRINCETON      LGT RAIN  37  36  93 N13       29.53F
MORA           LGT RAIN  34  32  93 N7        29.56F WCI  28
CAMBRIDGE      LGT RAIN  37  34  87 N12       29.50F
RUSH CITY      DRIZZLE   36  33  90 N12G20    29.52F
MOOSE LAKE     LGT SNOW  34  32  93 NE8       29.54F WCI  27
HINCKLEY       LGT RAIN  36  34  93 N16G24    29.54F
CLOQUET        LGT SNOW  32  30  93 CALM      29.56F
MCGREGOR       CLOUDY    32  30  93 N7        29.59S WCI  26
$$
MNZ071>073-080-081-089-090-097-098-261900-
   Southwest Minnesota

CITY           SKY/WX    TMP DP  RH WIND       PRES   REMARKS
MONTEVIDEO     CLOUDY    36  34  93 N20       29.60F
GRANITE FALLS  CLOUDY    38  34  85 NW13G24   29.62F
CANBY          CLOUDY    33  32  94 NW18G24   29.65F WCI  22
MARSHALL       CLOUDY    35  32  88 NW22      29.62F WCI  23
REDWOOD FALLS  CLOUDY    38  31  76 N15G22    29.59R
OLIVIA         CLOUDY    36  32  87 N12       29.57F
PIPESTONE      CLOUDY    34  28  80 N14G23    29.63R WCI  24
WINDOM         MOSUNNY   37  36  93 NW15      29.61R
WORTHINGTON    CLOUDY    35  33  92 NW13      29.64R WCI  26
JACKSON        CLOUDY    36  34  93 NW15      29.61R
TRACY          CLOUDY    36  35  96 NW21      29.62R FOG
SLAYTON        CLOUDY    33  32  96 NW15      29.63R WCI  23
$$
MNZ065>067-074>077-082>085-091>093-261900-
   South Central Minnesota

CITY           SKY/WX    TMP DP  RH WIND       PRES   REMARKS
MANKATO        CLOUDY    39  34  82 N15       29.56R
NEW ULM        CLOUDY    37  34  87 NW15      29.59R
ST JAMES       CLOUDY    37  36  93 NW14      29.61R
FAIRMONT       CLOUDY    39  36  89 NW17      29.58R
GLENCOE        CLOUDY    38  38 100 NW12G17   29.55R
FARIBAULT      CLOUDY    39  36  87 NW13      29.53R
OWATONNA       CLOUDY    39  36  87 NW13      29.52R
WASECA         CLOUDY    37  36  93 NW13      29.56R
ALBERT LEA     CLOUDY    37  37 100 NW13      29.52S
$$
MNZ078>079-086>088-094>096-261900-
   Southeast Minnesota

CITY           SKY/WX    TMP DP  RH WIND       PRES   REMARKS
ROCHESTER      CLOUDY    39  38  96 NW16      29.49R
6HR MIN TEMP:  38; 6HR MAX TEMP:  52; 6HR PCP: TRACE;

RED WING       CLOUDY    39  36  87 N7        29.48R
STANTON        CLOUDY    39  35  86 NW12      29.50R
DODGE CENTER   CLOUDY    37  36  93 NW10      29.50R
WINONA         CLOUDY    43  41  93 NW12      29.47R
AUSTIN         CLOUDY    39  37  93 NW14      29.50R
PRESTON        CLOUDY    40  37  89 NW14      29.49R
$$
ABBREVIATIONS USED IN REMARKS
   TC - TEMPERATURES IN CELSIUS
  WCI - WIND CHILL INDEX
   HX - HEAT INDEX
  VSB - VISIBILITY
$$




USA.gov is the U.S. government's official web portal to all federal, state and local government web resources and services.